Voltar ao catálogo

STARLINK-34991

AtivoComunicaçõesSSO
NORAD 65446·PAYLOAD·🇺🇸 United States

Lançado Sep 3, 2025 de Vandenberg Space Force Base

Loading…

Próximas Passagens (próximas 24 horas)

TLE

AtualizadoSource: CelesTrak SupGP

Época: Sep 15, 2026, 02:54 UTC

1 65446C 25194N   26258.12131944 -.00019442  00000+0 -60341-3 0  2580
2 65446  97.2841 107.7547 0002008  97.0659  45.9006 15.33453661    17

Acompanhe STARLINK-34991 em tempo real com AllMySat

Download on the App Store